Change the Weather History Date:

Sunday, December 4, 2011

  Actual Average Record
Temperature  
Mean Temperature 34 °F 35 °F  
Max Temperature 40 °F 45 °F 72 °F (2001)
Min Temperature 27 °F 25 °F 8 °F (1902)
Degree Days  
Heating Degree Days 31 30  
Month to date heating degree days 114 118  
Since 1 July heating degree days 1028 1112  
Cooling Degree Days 0 0  
Month to date cooling degree days 0 0  
Year to date cooling degree days 1924 1422  
Moisture  
Dew Point 26 °F    
Average Humidity 77    
Maximum Humidity 100    
Minimum Humidity 54    
Precipitation  
Precipitation T in 0.05 in 3.22 in (1944)
Month to date precipitation 1.25 0.21  
Year to date precipitation 30.73 35.32  
Snow  
Snow T in 0.10 in 3.00 in (1973)
Month to date snowfall T 0.5  
Year to date snowfall 38.5 13.1  
Since 1 July snowfall T 1.8  
Snow Depth 0.00 in    
Sea Level Pressure  
Sea Level Pressure 30.22 in    
Wind  
Wind Speed 7 mph (NNW)    
Max Wind Speed 17 mph    
Max Gust Speed 24 mph    
Visibility 10 miles    
Events      
T = Trace of Precipitation, MM = Missing Value Source: NWS Daily Summary

Daily Weather History Graph

Daily Weather History Graph

Search for Another Location

Airport or City:

Trip Planner

Search our weather history database for the weather conditions in past years. The results will help you decide how hot, cold, wet, or windy it might be!

Date:

Astronomy

Dec. 04, 2011 Rise Set
Actual Time 7:25 AM CST 4:59 PM CST
Civil Twilight 6:55 AM CST 5:29 PM CST
Nautical Twilight 6:22 AM CST 6:02 PM CST
Astronomical Twilight 5:50 AM CST 6:35 PM CST
Moon 1:29 PM CST (12/4) 1:53 AM CST (12/4)
Length of Visible Light 10h 34m
Length of Day
9h 34m
Waxing Gibbous, 72% of the Moon is Illuminated
Dec 4
Waxing Gibbous
Dec 10
Full
Dec 17
Last Quarter
Dec 24
New
Jan 1
First Quarter

Hourly Weather History & Observations

Time (CST) Temp. Windchill Dew Point Humidity Pressure Visibility Wind Dir Wind Speed Gust Speed Precip Events Conditions
12:45 AM 33.8 °F 25.8 °F 32.0 °F 93% 30.07 in 10.0 mi NW 10.4 mph - N/A   Overcast
12:50 AM 33.8 °F 26.4 °F 32.0 °F 93% 30.07 in 10.0 mi NW 9.2 mph - N/A   Overcast
12:53 AM 34.0 °F 25.5 °F 32.0 °F 92% 30.08 in 10.0 mi NW 11.5 mph - N/A   Overcast
1:23 AM 33.8 °F 24.3 °F 30.2 °F 87% 30.07 in 10.0 mi NW 13.8 mph - N/A   Overcast
1:38 AM 33.8 °F 25.8 °F 30.2 °F 87% 30.09 in 10.0 mi WNW 10.4 mph - N/A   Overcast
1:53 AM 33.1 °F 23.9 °F 30.0 °F 89% 30.10 in 10.0 mi NNW 12.7 mph 24.2 mph N/A   Overcast
2:53 AM 33.1 °F 26.1 °F 28.9 °F 85% 30.14 in 10.0 mi NW 8.1 mph - N/A   Overcast
3:13 AM 32.0 °F 22.5 °F 28.4 °F 87% 30.13 in 10.0 mi NW 12.7 mph - N/A   Overcast
3:53 AM 32.0 °F 24.2 °F 26.1 °F 79% 30.15 in 10.0 mi NW 9.2 mph - N/A   Overcast
4:53 AM 30.0 °F 26.5 °F 24.1 °F 79% 30.18 in 10.0 mi WNW 3.5 mph - N/A   Clear
5:53 AM 28.9 °F 25.2 °F 24.1 °F 82% 30.18 in 10.0 mi West 3.5 mph - N/A   Clear
6:53 AM 28.9 °F 22.8 °F 25.0 °F 85% 30.20 in 10.0 mi West 5.8 mph - N/A   Clear
7:53 AM 27.0 °F 23.0 °F 23.0 °F 85% 30.23 in 10.0 mi NW 3.5 mph - N/A   Clear
8:53 AM 28.9 °F 21.1 °F 24.1 °F 82% 30.26 in 10.0 mi NW 8.1 mph - N/A   Clear
9:53 AM 32.0 °F 26.4 °F 25.0 °F 75% 30.25 in 10.0 mi NNW 5.8 mph - N/A   Clear
10:53 AM 35.1 °F 29.3 °F 26.1 °F 70% 30.25 in 10.0 mi NNW 6.9 mph - N/A   Clear
11:53 AM 37.0 °F 31.0 °F 27.0 °F 67% 30.23 in 10.0 mi NNW 8.1 mph - N/A   Clear
12:53 PM 37.9 °F 33.5 °F 27.0 °F 65% 30.22 in 10.0 mi NNW 5.8 mph - N/A   Clear
1:53 PM 39.0 °F 32.8 °F 26.1 °F 60% 30.23 in 10.0 mi WNW 9.2 mph - N/A   Clear
2:53 PM 39.2 °F 32.5 °F 24.8 °F 56% 30.21 in 10.0 mi NW 10.4 mph - N/A   Clear
3:53 PM 37.0 °F 30.4 °F 23.0 °F 57% 30.25 in 10.0 mi NNW 9.2 mph - N/A   Clear
4:53 PM 34.0 °F 28.0 °F 24.1 °F 67% 30.27 in 10.0 mi North 6.9 mph - N/A   Clear
5:53 PM 32.0 °F 27.5 °F 24.1 °F 73% 30.29 in 10.0 mi North 4.6 mph - N/A   Clear
6:53 PM 30.0 °F 26.5 °F 24.1 °F 79% 30.32 in 10.0 mi NNW 3.5 mph - N/A   Clear
7:53 PM 28.9 °F 22.8 °F 23.0 °F 78% 30.34 in 10.0 mi North 5.8 mph - N/A   Clear
8:53 PM 28.4 °F 22.2 °F 23.0 °F 80% 30.32 in 10.0 mi NNE 5.8 mph - N/A   Clear
9:53 PM 28.9 °F 21.9 °F 24.1 °F 82% 30.36 in 10.0 mi North 6.9 mph - N/A   Clear
10:53 PM 28.0 °F 21.7 °F 24.1 °F 85% 30.37 in 10.0 mi North 5.8 mph - N/A   Clear
11:53 PM 27.0 °F 21.6 °F 24.1 °F 89% 30.38 in 10.0 mi North 4.6 mph - N/A   Clear